| time (UTC) | temp F | wind direction | speed knots | gust knots | rain 1hr in | rain 24hr in | rain mn in | humidity % | barometer mb |
| 20260507140035 | 54 | 49 | 1.7 | 4.3 | 0.00 | 0.12 | 0.00 | 54 | 993.4 |
| 20260507134534 | 53 | 5 | 2.6 | 4.3 | 0.00 | 0.16 | 0.00 | 57 | 993.6 |
| 20260507133033 | 52 | 360 | 0.0 | 3.5 | 0.00 | 0.16 | 0.00 | 60 | 993.9 |
| 20260507131533 | 52 | 9 | 0.0 | 1.7 | 0.00 | 0.16 | 0.00 | 63 | 994.0 |
| 20260507130039 | 51 | 9 | 0.9 | 4.3 | 0.00 | 0.16 | 0.00 | 59 | 994.0 |
| 20260507124531 | 51 | 319 | 0.9 | 2.6 | 0.00 | 0.19 | 0.00 | 60 | 994.1 |
| 20260507123039 | 51 | 334 | 0.9 | 2.6 | 0.00 | 0.19 | 0.00 | 61 | 993.8 |
| 20260507121528 | 51 | 360 | 0.0 | 2.6 | 0.00 | 0.19 | 0.00 | 64 | 993.8 |
| 20260507120028 | 51 | 341 | 1.7 | 2.6 | 0.00 | 0.19 | 0.00 | 62 | 993.6 |
| 20260507114527 | 51 | 321 | 0.9 | 2.6 | 0.00 | 0.21 | 0.00 | 61 | 993.8 |
| 20260507113029 | 51 | 338 | 0.0 | 0.0 | 0.00 | 0.21 | 0.00 | 62 | 993.8 |
| 20260507111524 | 51 | 338 | 0.0 | 0.0 | 0.00 | 0.21 | 0.00 | 63 | 993.7 |
| 20260507110029 | 50 | 332 | 0.0 | 0.0 | 0.00 | 0.21 | 0.00 | 64 | 993.6 |
| 20260507104520 | 51 | 332 | 0.0 | 0.0 | 0.00 | 0.22 | 0.00 | 70 | 993.4 |
| 20260507103018 | 51 | 332 | 0.0 | 0.0 | 0.00 | 0.22 | 0.00 | 68 | 993.0 |
| 20260507101518 | 51 | 332 | 0.0 | 0.0 | 0.00 | 0.22 | 0.00 | 65 | 993.0 |
| 20260507100015 | 51 | 332 | 0.0 | 0.0 | 0.00 | 0.22 | 0.00 | 64 | 992.7 |
| 20260507094515 | 51 | 332 | 0.0 | 1.7 | 0.00 | 0.22 | 0.00 | 65 | 992.6 |
| 20260507093013 | 52 | 332 | 0.9 | 1.7 | 0.00 | 0.22 | 0.00 | 65 | 992.7 |
| 20260507091512 | 52 | 332 | 0.9 | 2.6 | 0.00 | 0.22 | 0.00 | 62 | 992.8 |
| 20260507090012 | 52 | 332 | 0.9 | 2.6 | 0.00 | 0.22 | 0.00 | 62 | 992.7 |
| 20260507084513 | 52 | 351 | 1.7 | 2.6 | 0.00 | 0.22 | 0.00 | 63 | 992.4 |
| 20260507083006 | 52 | 30 | 0.0 | 1.7 | 0.00 | 0.22 | 0.00 | 67 | 992.5 |
| 20260507081505 | 53 | 323 | 0.0 | 2.6 | 0.00 | 0.22 | 0.00 | 70 | 992.3 |
| 20260507080003 | 53 | 13 | 0.0 | 1.7 | 0.00 | 0.22 | 0.00 | 72 | 992.2 |
| 20260507074501 | 53 | 19 | 0.0 | 3.5 | 0.00 | 0.22 | 0.00 | 71 | 992.0 |
| 20260507073100 | 53 | 45 | 1.7 | 2.6 | 0.00 | 0.22 | 0.00 | 71 | 991.8 |
| 20260507071609 | 53 | 342 | 0.9 | 2.6 | 0.00 | 0.22 | 0.00 | 71 | 992.0 |
| 20260507071501 | 53 | 5 | 0.9 | 2.6 | 0.00 | 0.22 | 0.00 | 71 | 992.0 |
| 20260507070058 | 53 | 336 | 1.7 | 3.5 | 0.00 | 0.22 | 0.00 | 72 | 992.0 |
| 20260507064610 | 53 | 315 | 0.9 | 2.6 | 0.00 | 0.22 | 0.00 | 72 | 992.2 |
| 20260507063057 | 54 | 336 | 1.7 | 3.5 | 0.00 | 0.22 | 0.00 | 72 | 992.2 |
| 20260507061555 | 54 | 340 | 2.6 | 3.5 | 0.00 | 0.22 | 0.00 | 72 | 992.3 |
| 20260507060054 | 54 | 329 | 0.9 | 2.6 | 0.00 | 0.22 | 0.00 | 72 | 992.4 |
| 20260507054604 | 54 | 325 | 0.9 | 2.6 | 0.00 | 0.22 | 0.00 | 73 | 992.2 |
| 20260507053051 | 54 | 343 | 0.9 | 3.5 | 0.00 | 0.22 | 0.00 | 74 | 992.0 |
| 20260507051550 | 54 | 336 | 0.9 | 2.6 | 0.00 | 0.22 | 0.00 | 74 | 992.1 |
| 20260507050049 | 54 | 355 | 0.9 | 3.5 | 0.00 | 0.22 | 0.00 | 74 | 992.0 |
| 20260507044550 | 55 | 331 | 1.7 | 3.5 | 0.00 | 0.22 | 0.00 | 75 | 992.1 |
| 20260507043047 | 55 | 47 | 0.0 | 3.5 | 0.00 | 0.22 | 0.00 | 76 | 991.9 |
| 20260507041554 | 55 | 346 | 0.0 | 3.5 | 0.00 | 0.22 | 0.00 | 77 | 992.0 |
| 20260507040043 | 55 | 350 | 1.7 | 4.3 | 0.00 | 0.22 | 0.00 | 79 | 991.9 |
| 20260507034543 | 55 | 346 | 1.7 | 3.5 | 0.00 | 0.22 | 0.22 | 80 | 992.4 |
| 20260507033044 | 55 | 346 | 0.9 | 2.6 | 0.00 | 0.22 | 0.22 | 80 | 991.8 |
| 20260507031538 | 55 | 355 | 0.9 | 2.6 | 0.00 | 0.22 | 0.22 | 80 | 992.0 |
| 20260507030038 | 56 | 323 | 0.9 | 3.5 | 0.00 | 0.22 | 0.22 | 80 | 992.0 |
| 20260507024536 | 56 | 336 | 2.6 | 7.0 | 0.00 | 0.22 | 0.22 | 80 | 992.0 |
| 20260507023033 | 56 | 309 | 0.9 | 3.5 | 0.00 | 0.22 | 0.22 | 81 | 991.6 |
| 20260507021532 | 56 | 336 | 2.6 | 4.3 | 0.00 | 0.22 | 0.22 | 80 | 991.4 |
| 20260507020031 | 56 | 333 | 0.9 | 3.5 | 0.00 | 0.22 | 0.22 | 81 | 991.2 |
| 20260507014547 | 57 | 303 | 1.7 | 4.3 | 0.00 | 0.22 | 0.22 | 80 | 991.2 |
| 20260507013040 | 57 | 333 | 1.7 | 4.3 | 0.00 | 0.22 | 0.22 | 80 | 991.6 |
| 20260507011534 | 58 | 25 | 0.0 | 3.5 | 0.00 | 0.22 | 0.22 | 79 | 991.3 |
| 20260507010027 | 58 | 311 | 2.6 | 5.2 | 0.00 | 0.22 | 0.22 | 77 | 990.7 |
| 20260507004524 | 59 | 313 | 1.7 | 5.2 | 0.00 | 0.22 | 0.22 | 78 | 991.1 |
| 20260507003021 | 60 | 284 | 1.7 | 5.2 | 0.00 | 0.22 | 0.22 | 78 | 990.8 |
| 20260507001519 | 60 | 294 | 1.7 | 6.1 | 0.00 | 0.22 | 0.22 | 76 | 990.6 |
| 20260507000026 | 60 | 312 | 1.7 | 5.2 | 0.00 | 0.22 | 0.22 | 76 | 990.6 |
| 20260506234515 | 61 | 323 | 2.6 | 7.8 | 0.00 | 0.22 | 0.22 | 79 | 990.4 |
| 20260506233016 | 61 | 310 | 1.7 | 5.2 | 0.00 | 0.22 | 0.22 | 80 | 989.8 |
| 20260506231514 | 61 | 304 | 2.6 | 4.3 | 0.00 | 0.22 | 0.22 | 80 | 989.7 |
| 20260506230011 | 62 | 322 | 1.7 | 3.5 | 0.00 | 0.22 | 0.22 | 82 | 989.4 |
| 20260506224510 | 62 | 296 | 0.9 | 3.5 | 0.00 | 0.22 | 0.22 | 83 | 989.5 |
| 20260506223009 | 63 | 290 | 0.9 | 4.3 | 0.00 | 0.22 | 0.22 | 86 | 989.5 |
| 20260506221510 | 63 | 306 | 1.7 | 3.5 | 0.00 | 0.22 | 0.22 | 86 | 989.2 |
| 20260506220008 | 63 | 267 | 0.9 | 2.6 | 0.01 | 0.22 | 0.22 | 86 | 988.9 |
| 20260506214507 | 63 | 258 | 0.0 | 2.6 | 0.03 | 0.22 | 0.22 | 88 | 988.8 |
| 20260506213011 | 63 | 270 | 0.0 | 1.7 | 0.03 | 0.22 | 0.22 | 89 | 988.8 |
| 20260506211506 | 64 | 271 | 0.0 | 2.6 | 0.03 | 0.22 | 0.22 | 89 | 988.8 |
| 20260506210008 | 65 | 32 | 0.0 | 0.0 | 0.02 | 0.21 | 0.21 | 91 | 988.3 |
| 20260506204506 | 65 | 124 | 0.0 | 0.0 | 0.00 | 0.19 | 0.19 | 90 | 988.0 |
| 20260506203004 | 65 | 124 | 0.0 | 0.0 | 0.00 | 0.19 | 0.19 | 90 | 987.9 |
| 20260506201504 | 65 | 124 | 0.0 | 0.0 | 0.00 | 0.19 | 0.19 | 90 | 987.8 |
| 20260506200004 | 65 | 124 | 0.0 | 0.0 | 0.00 | 0.19 | 0.19 | 90 | 987.6 |
| 20260506194502 | 65 | 124 | 0.0 | 1.7 | 0.00 | 0.19 | 0.19 | 88 | 987.8 |
| 20260506193000 | 65 | 128 | 0.0 | 1.7 | 0.00 | 0.19 | 0.19 | 89 | 987.8 |
| 20260506191601 | 65 | 225 | 0.0 | 1.7 | 0.01 | 0.19 | 0.19 | 89 | 987.8 |
| 20260506190100 | 65 | 163 | 0.0 | 0.9 | 0.02 | 0.19 | 0.19 | 89 | 987.9 |
| 20260506184559 | 65 | 173 | 0.0 | 0.9 | 0.04 | 0.19 | 0.19 | 91 | 987.8 |
| 20260506183058 | 63 | 226 | 0.0 | 2.6 | 0.06 | 0.19 | 0.19 | 92 | 988.1 |
| 20260506181557 | 63 | 238 | 0.9 | 1.7 | 0.06 | 0.18 | 0.18 | 90 | 988.5 |
| 20260506180105 | 63 | 210 | 0.0 | 0.0 | 0.05 | 0.17 | 0.17 | 90 | 988.4 |
| 20260506174554 | 63 | 209 | 0.0 | 1.7 | 0.03 | 0.15 | 0.15 | 89 | 988.4 |
| 20260506173111 | 64 | 209 | 0.9 | 4.3 | 0.01 | 0.13 | 0.13 | 86 | 988.5 |
| 20260506171600 | 66 | 230 | 0.9 | 3.5 | 0.00 | 0.12 | 0.12 | 83 | 988.1 |
| 20260506170053 | 66 | 182 | 0.9 | 5.2 | 0.00 | 0.12 | 0.12 | 82 | 987.9 |
| 20260506164552 | 66 | 148 | 0.9 | 1.7 | 0.00 | 0.12 | 0.12 | 82 | 987.9 |
| 20260506163051 | 65 | 209 | 0.0 | 1.7 | 0.00 | 0.12 | 0.12 | 84 | 987.9 |
| 20260506161556 | 65 | 171 | 0.9 | 4.3 | 0.00 | 0.12 | 0.12 | 84 | 988.0 |
| 20260506160104 | 64 | 115 | 0.9 | 4.3 | 0.00 | 0.12 | 0.12 | 86 | 987.9 |
| 20260506154549 | 62 | 138 | 0.9 | 4.3 | 0.00 | 0.12 | 0.12 | 87 | 987.9 |
| 20260506153048 | 62 | 210 | 0.9 | 4.3 | 0.00 | 0.12 | 0.12 | 88 | 988.1 |
| 20260506151548 | 62 | 122 | 1.7 | 5.2 | 0.00 | 0.12 | 0.12 | 89 | 987.9 |
| 20260506150047 | 62 | 140 | 0.9 | 3.5 | 0.02 | 0.12 | 0.12 | 90 | 987.9 |
| 20260506144546 | 61 | 134 | 0.9 | 7.0 | 0.03 | 0.12 | 0.12 | 92 | 988.1 |
| 20260506143046 | 60 | 187 | 0.0 | 2.6 | 0.03 | 0.12 | 0.12 | 92 | 988.0 |
| 20260506141545 | 59 | 121 | 0.0 | 1.7 | 0.05 | 0.12 | 0.12 | 92 | 988.3 |